Location: *
(44.1392°N, 4.8079°E)
Time: 08:14:34
(UTC+00:00)

Cosmos 2082 Rocket - Pass Details

Date: 21 June 2021
Orbit: 832 x 855 km, 71.0° (Epoch: 02 August)

Event Time Altitude Azimuth Distance (km) Brightness Sun altitude
Rises 02:48:19 0° 172° (S) 3,362 4.9 -10.2°
Reaches altitude 10° 02:51:01 10° 162° (SSE) 2,432 4.3 -9.9°
Maximum altitude 02:55:45 29° 103° (ESE) 1,482 3.8 -9.3°
Drops below altitude 10° 03:00:30 10° 45° (NE) 2,450 6.3 -8.7°
Sets 03:03:13 0° 35° (NE) 3,390 7.4 -8.3°
